Regional Weather Roundup
Issued by NWS

Home | Current Version | Previous Version | Graphics & Text | Print | Product List | Glossary On
Versions: 1 2 3 4 5 6 7 8 9 10 11 12 13 14 15 16 17 18 19 20 21 22 23 24 25 26 27 28 29 30 31 32 33 34 35 36 37 38 39 40 41 42 43 44 45 46 47 48 49 50
766
ASUS44 KLIX 272301
RWRLA
LOUISIANA WEATHER ROUNDUP
NATIONAL WEATHER SERVICE NEW ORLEANS LA
600 PM CDT WED AUG 27 2014

NOTE: "FAIR" INDICATES FEW OR NO CLOUDS BELOW 12,000 FEET WITH NO
      SIGNIFICANT WEATHER AND/OR OBSTRUCTIONS TO VISIBILITY.
      SKY/WX - SKY CONDITION AND SIGNIFICANT WEATHER.
      TMP - AIR TEMPERATURE.    DP   - DEWPOINT TEMPERATURE.
      RH  - RELATIVE HUMIDITY.  PRES - PRESSURE.
      HX  - HEAT INDEX.         WCI  - WIND CHILL INDEX.

*  THESE STATIONS ARE NOT NWS OR FAA STATIONS AND ARE NOT UNDER
   NWS QUALITY CONTROL.

LAZ040-048-061>063-065-066-069-280000-
SOUTHEAST LOUISIANA

CITY           SKY/WX    TMP DP  RH WIND       PRES   REMARKS
N.O. AUDUBON     N/A     85  76  74 MISG        N/A
N.O. INTL ARPT CLOUDY    85  73  67 SE7       29.97F
N.O. LAKEFRONT CLOUDY    86  75  69 SE13      29.96F HX  95
N.O. DOWNTOWN* CLOUDY    84  72  65 SE7       29.97F
SLIDELL        CLOUDY    81  76  84 SE3       29.97F
BATON ROUGE    MOSUNNY   89  72  56 E6        29.96F HX  96
BOOTHVILLE     MOSUNNY   85  75  72 SE12      29.97F
BELLE CHASSE   CLOUDY    84  77  79 E7        29.96F
BOGALUSA*      MOCLDY    85  74  70 SW5       29.99R
GALLIANO*      NOT AVBL
NEW ROADS*     FAIR      89  74  62 E5        29.97R HX  97
GONZALES*      FAIR      83  76  80 CALM      29.97S
HAMMOND*       NOT AVBL
HOUMA*         NOT AVBL
PORT FOURCHON* CLEAR     84  73  70 NE15      29.97F

$$

LAZ041-044-053-054-280000-
SOUTHWEST LOUISIANA

CITY           SKY/WX    TMP DP  RH WIND       PRES   REMARKS
LAKE CHARLES   PTSUNNY   89  72  56 SE10      29.95S HX  96
LAFAYETTE      PTSUNNY   83  73  72 SE10G17   29.98R
PATTERSON      CLOUDY    82  75  78 E7        30.00S
SALT POINT       N/A     87  76  69 CALM      29.96S HX  97
NEW IBERIA     LGT RAIN  78  75  90 SE8       29.99R
CHENAULT AIRPK SUNNY     88  72  58 E6        29.96S

$$

LAZ027-028-280000-
CENTRAL LOUISIANA

CITY           SKY/WX    TMP DP  RH WIND       PRES   REMARKS
FORT POLK      MOSUNNY   88  70  55 SE7       29.97S
ALEXANDRIA INT MOSUNNY   89  70  53 NE5       29.95S
ALEXANDRIA     SUNNY     94  71  47 E3        29.97S HX 101

$$

LAZ001-002-280000-
NORTHWEST LOUISIANA

CITY           SKY/WX    TMP DP  RH WIND       PRES   REMARKS
SHREVEPORT     PTSUNNY   90  64  42 E5        29.96F
BARKSDALE AFB  MOSUNNY   90  64  41 NE5       29.97F
DTN SHREVEPORT MOSUNNY   89  64  43 NE3       29.97F

$$

LAZ014-016-280000-
NORTHEAST LOUISIANA

CITY           SKY/WX    TMP DP  RH WIND       PRES   REMARKS
MONROE         PTSUNNY   92  66  42 N6        29.98F
TALLULAH       SUNNY     92  65  40 NE7       29.98F

$$




USA.gov is the U.S. government's official web portal to all federal, state and local government web resources and services.